Regional Weather Roundup
Issued by NWS

Home | Current Version | Previous Version | Text Only | Print | Product List | Glossary On
Versions: 1 2 3 4 5 6 7 8 9 10 11 12 13 14 15 16 17 18 19 20 21 22 23 24 25 26 27 28 29 30 31 32 33 34 35 36 37 38 39 40 41 42 43 44 45 46 47 48 49 50
000
ASUS43 KLSX 260559
RWRMO

WEATHER SUMMARY FOR MISSOURI
NATIONAL WEATHER SERVICE SPRINGFIELD MO
100 AM CDT TUE MAY 26 2015

NOTE: "FAIR" INDICATES FEW OR NO CLOUDS BELOW 12,000 FEET WITH NO
       SIGNIFICANT WEATHER AND/OR OBSTRUCTIONS TO VISIBILITY.
       CURRENT SKY AND/OR WEATHER CONDITIONS ARE NOT AVAILABLE FOR
       CHILLICOTHE AND FARMINGTON.

MOZ001>031-035>038-043-044-053-054-260700-
...NORTHERN AND WESTERN MISSOURI...

CITY           SKY/WX    TMP DP  RH WIND       PRES   REMARKS
KANSAS CTY INT LGT RAIN  61  60  97 CALM      29.85R
6HR MIN TEMP:  61; 6HR MAX TEMP:  79; 6HR PCP:  0.64;

KANSAS C DTWN  LGT RAIN  64  60  87 W8        29.85R
6HR MIN TEMP:  64; 6HR MAX TEMP:  80; 6HR PCP:  0.17;

LEE`S SUMMIT   LGT RAIN  68  61  78 W8        29.85R
6HR MIN TEMP:  68; 6HR MAX TEMP:  78; 6HR PCP: TRACE;

ST JOSEPH      RAIN      62  60  93 SE5       29.85R FOG
6HR MIN TEMP:  60; 6HR MAX TEMP:  78; 6HR PCP:  0.60;

KIRKSVILLE     CLOUDY    70  65  84 S12       29.85F
6HR MIN TEMP:  68; 6HR MAX TEMP:  78;


$$
MOZ066>068-077>081-088>096-101>105-260700-
...SOUTHWEST MISSOURI...

CITY           SKY/WX    TMP DP  RH WIND       PRES   REMARKS
SPRINGFIELD    CLOUDY    67  60  78 SE21      29.80F
6HR MIN TEMP:  66; 6HR MAX TEMP:  77; 6HR PCP:  0.06;

JOPLIN         CLOUDY    65  62  90 SW12      29.81R
6HR MIN TEMP:  63; 6HR MAX TEMP:  76; 6HR PCP:  0.12;


$$
MOZ032>034-039>042-045>050-055>058-069>072-260700-
...CENTRAL MISSOURI...

CITY           SKY/WX    TMP DP  RH WIND       PRES   REMARKS
COLUMBIA       CLOUDY    71  66  84 SE9       29.86F
6HR MIN TEMP:  71; 6HR MAX TEMP:  79;

JEFFERSON CITY CLOUDY    72  66  81 SE10      29.86F
6HR MIN TEMP:  72; 6HR MAX TEMP:  81;

ROLLA          LGT RAIN  70  66  87 SE12      29.87F
6HR MIN TEMP:  70; 6HR MAX TEMP:  76; 6HR PCP: TRACE;

SEDALIA        CLOUDY    71  65  81 SE8       29.83F
6HR MIN TEMP:  71; 6HR MAX TEMP:  80;

OSAGE BEACH    CLOUDY    70  66  88 SE7       29.85F

$$
MOZ051-052-059>065-260700-
...EAST CENTRAL MISSOURI...

CITY           SKY/WX    TMP DP  RH WIND       PRES   REMARKS
ST LOUIS INTL  CLOUDY    74  66  76 SE14      29.92F
6HR MIN TEMP:  74; 6HR MAX TEMP:  83;

SPIRIT OF STL  CLOUDY    72  68  87 SE6       29.90F
6HR MIN TEMP:  72; 6HR MAX TEMP:  80;

ST CHARLES     CLOUDY    73  67  81 SE10      29.91F
6HR MIN TEMP:  73; 6HR MAX TEMP:  81;


$$
MOZ072>076-082>087-097>100-106>115-260700-
...SOUTH CENTRAL AND SOUTHEAST MISSOURI...

CITY           SKY/WX    TMP DP  RH WIND       PRES   REMARKS
CAPE GIRARDEAU CLOUDY    70  69  97 SE9       29.96F
6HR MIN TEMP:  70; 6HR MAX TEMP:  76;

FARMINGTON     CLOUDY    72  66  83 S14       29.98S
6HR MIN TEMP:  70; 6HR MAX TEMP:  75;

POPLAR BLUFF   CLOUDY    72  69  90 SE9       29.94S
6HR MIN TEMP:  72; 6HR MAX TEMP:  77;

WEST PLAINS    CLOUDY    62  61  96 S6        29.91F
6HR MIN TEMP:  62; 6HR MAX TEMP:  76; 6HR PCP:  0.25;


$$


USA.gov is the U.S. government's official web portal to all federal, state and local government web resources and services.